{"data":{"norad_id":66344,"intl_designator":"2025-253AB","name":"STARLINK-35511","alt_names":[],"object_type":"PAYLOAD","status":"ACTIVE","operator":null,"country":"US","launch_date":"2025-11-06","launch_site_code":"AFETR","launch_vehicle":null,"mission":null,"orbit_class":"UNKNOWN","rcs_meters":null,"size_class":null,"mass_kg":null,"dimensions":null,"purposes":["comms"],"wikipedia_slug":null,"has_3d_model":false,"image_url":null,"decayed_at":null,"tle_current":{"epoch":"2026-05-25T00:39:33.393312Z","epoch_age_seconds":73462,"freshness":"FRESH","line1":"1 66344U 25253AB  26145.02746983  .00020832  00000+0  76408-3 0  9999","line2":"2 66344  42.9960 141.0124 0000831 164.8538 195.2338 15.27594156 31926","mean_motion":15.27594156,"eccentricity":8.31e-5,"inclination_deg":42.996,"raan_deg":141.0124,"arg_perigee_deg":164.8538,"mean_anomaly_deg":195.2338,"bstar":0.00076408,"rev_number":3192,"period_min":94.265875156962,"perigee_km":482.43654716824,"apogee_km":483.57686925255,"semimajor_km":6861.1437082104,"source":"CELESTRAK","updated_at":"2026-05-25T13:38:21.172178Z"}}}